Weather History for Moorhead, MN

Change the Weather History Date:

Monday, August 19, 2013

  Actual Average (KFAR) Record (KFAR)
Temperature  
Mean Temperature 76 °F 69 °F  
Max Temperature 87 °F 81 °F 105 °F (1976)
Min Temperature 66 °F 57 °F 39 °F (1978)
Degree Days  
Heating Degree Days 0 1  
Month to date heating degree days 15  
Since 1 June heating degree days 104  
Since 1 July heating degree days 31  
Cooling Degree Days 12 5  
Month to date cooling degree days 117  
Year to date cooling degree days 457  
Since 1 June cooling degree days 426  
Growing Degree Days 26 (Base 50)    
Moisture  
Dew Point 71 °F    
Average Humidity 84    
Maximum Humidity 100    
Minimum Humidity 55    
Precipitation  
Precipitation 0.00 in 0.10 in 3.41 in (1935)
Month to date precipitation 1.43  
Year to date precipitation 14.93  
Snow  
Snow 0.00 in 0.00 in 0.00 in ()
Month to date snowfall 0.0  
Since 1 June snowfall 0.0  
Since 1 July snowfall 0.0  
Snow Depth -    
Sea Level Pressure  
Sea Level Pressure 29.86 in    
Wind  
Wind Speed 6 mph (South)    
Max Wind Speed 10 mph    
Max Gust Speed -    
Visibility 10 miles    
Events      
T = Trace of Precipitation, MM = Missing Value Source: NWS Daily Summary

Daily Weather History Graph

Daily Weather History Graph

Search for Another Location

Airport:

Trip Planner

Search our weather history database for the weather conditions in past years. The results will help you decide how hot, cold, wet, or windy it might be!

Date:

Astronomy

Aug. 19, 2013 Rise Set
Actual Time 6:29 AM CDT 8:29 PM CDT
Civil Twilight 5:57 AM CDT 9:02 PM CDT
Nautical Twilight 5:16 AM CDT 9:42 PM CDT
Astronomical Twilight 4:31 AM CDT 10:26 PM CDT
Moon 7:21 PM CDT (8/19) 4:48 AM CDT (8/19)
Length of Visible Light 15h 05m
Length of Day
13h 59m
Waxing Gibbous, 97% of the Moon is Illuminated
Aug 19
Waxing Gibbous
Aug 20
Full
Aug 28
Last Quarter
Sep 5
New
Sep 12
First Quarter

Hourly Weather History & Observations

Time (CDT) Temp. Heat Index Dew Point Humidity Pressure Visibility Wind Dir Wind Speed Gust Speed Precip Events Conditions
12:15 AM 73.4 °F - 71.6 °F 94% 29.91 in 10.0 mi South 6.9 mph - N/A   Clear
12:35 AM 71.6 °F - 71.6 °F 100% 29.90 in 10.0 mi North - - N/A   Clear
12:54 AM 73.4 °F - 71.6 °F 94% 29.90 in 10.0 mi South 8.1 mph - N/A   Clear
1:15 AM 73.4 °F - 71.6 °F 94% 29.90 in 10.0 mi South 9.2 mph - N/A   Clear
1:34 AM 73.4 °F - 71.6 °F 94% 29.90 in 10.0 mi South 8.1 mph - N/A   Clear
1:55 AM 73.4 °F - 71.6 °F 94% 29.90 in 10.0 mi SSW 9.2 mph - N/A   Clear
2:15 AM 73.4 °F - 71.6 °F 94% 29.90 in 10.0 mi South 6.9 mph - N/A   Clear
2:34 AM 73.4 °F - 71.6 °F 94% 29.90 in 10.0 mi North - - N/A   Clear
2:55 AM 71.6 °F - 71.6 °F 100% 29.89 in 10.0 mi South 5.8 mph - N/A   Clear
3:14 AM 71.6 °F - 71.6 °F 100% 29.88 in 10.0 mi South 8.1 mph - N/A   Clear
3:34 AM 71.6 °F - 71.6 °F 100% 29.87 in 10.0 mi South 8.1 mph - N/A   Clear
3:55 AM 71.6 °F - 69.8 °F 94% 29.87 in 10.0 mi North - - N/A   Clear
4:15 AM 71.6 °F - 69.8 °F 94% 29.87 in 10.0 mi South 9.2 mph - N/A   Clear
4:34 AM 69.8 °F - 69.8 °F 100% 29.86 in 10.0 mi South 10.4 mph - N/A   Clear
4:55 AM 69.8 °F - 69.8 °F 100% 29.87 in 10.0 mi SSW 5.8 mph - N/A   Clear
5:15 AM 69.8 °F - 69.8 °F 100% 29.87 in 10.0 mi South 6.9 mph - N/A   Clear
5:34 AM 69.8 °F - 69.8 °F 100% 29.87 in 10.0 mi South 5.8 mph - N/A   Clear
5:55 AM 69.8 °F - 69.8 °F 100% 29.88 in 10.0 mi South 4.6 mph - N/A   Clear
6:15 AM 68.0 °F - 68.0 °F 100% 29.87 in 7.0 mi South 5.8 mph - N/A   Clear
6:34 AM 68.0 °F - 68.0 °F 100% 29.88 in 10.0 mi South 5.8 mph - N/A   Clear
6:55 AM 66.2 °F - 66.2 °F 100% 29.89 in 7.0 mi Calm Calm - N/A   Clear
7:14 AM 66.2 °F - 66.2 °F 100% 29.89 in 7.0 mi SSE 3.5 mph - N/A   Clear
7:35 AM 68.0 °F - 68.0 °F 100% 29.89 in 7.0 mi South 5.8 mph - N/A   Clear
7:55 AM 68.0 °F - 68.0 °F 100% 29.89 in 10.0 mi South 5.8 mph - N/A   Clear
8:14 AM 69.8 °F - 69.8 °F 100% 29.89 in 10.0 mi South 4.6 mph - N/A   Clear
8:35 AM 69.8 °F - 69.8 °F 100% 29.90 in 10.0 mi South 3.5 mph - N/A   Clear
8:55 AM 71.6 °F - 69.8 °F 94% 29.90 in 10.0 mi SSW 6.9 mph - N/A   Clear
9:14 AM 71.6 °F - 69.8 °F 94% 29.90 in 10.0 mi SSW 6.9 mph - N/A   Clear
9:35 AM 73.4 °F - 71.6 °F 94% 29.90 in 10.0 mi SSW 6.9 mph - N/A   Clear
9:55 AM 73.4 °F - 71.6 °F 94% 29.90 in 10.0 mi SW 8.1 mph - N/A   Clear
10:14 AM 75.2 °F - 71.6 °F 89% 29.89 in 10.0 mi SW 8.1 mph - N/A   Clear
10:35 AM 75.2 °F - 71.6 °F 89% 29.89 in 7.0 mi SSW 6.9 mph - N/A   Clear
10:55 AM 77.0 °F - 71.6 °F 83% 29.89 in 10.0 mi SSW 6.9 mph - N/A   Clear
11:14 AM 78.8 °F - 71.6 °F 78% 29.89 in 10.0 mi SSW 3.5 mph - N/A   Clear
11:35 AM 78.8 °F - 73.4 °F 83% 29.89 in 10.0 mi SW 6.9 mph - N/A   Clear
11:54 AM 80.6 °F 85.4 °F 73.4 °F 79% 29.89 in 10.0 mi South 5.8 mph - N/A   Clear
12:15 PM 80.6 °F 85.4 °F 73.4 °F 79% 29.88 in 10.0 mi SW 8.1 mph - N/A   Clear
12:35 PM 82.4 °F 88.2 °F 73.4 °F 74% 29.88 in 10.0 mi SW 5.8 mph - N/A   Clear
12:54 PM 82.4 °F 88.2 °F 73.4 °F 74% 29.88 in 10.0 mi SSW 4.6 mph - N/A   Clear
1:15 PM 82.4 °F 88.2 °F 73.4 °F 74% 29.87 in 10.0 mi South 6.9 mph - N/A   Clear
1:35 PM 84.2 °F 90.9 °F 73.4 °F 70% 29.87 in 10.0 mi South 6.9 mph - N/A   Clear
1:54 PM 84.2 °F 90.9 °F 73.4 °F 70% 29.87 in 10.0 mi SSE 5.8 mph - N/A   Clear
2:15 PM 84.2 °F 89.6 °F 71.6 °F 66% 29.87 in 10.0 mi South 5.8 mph - N/A   Clear
2:35 PM 86.0 °F 93.4 °F 73.4 °F 66% 29.87 in 10.0 mi SSW 4.6 mph - N/A   Clear
2:54 PM 86.0 °F 93.4 °F 73.4 °F 66% 29.86 in 10.0 mi South 5.8 mph - N/A   Clear
3:15 PM 86.0 °F 91.8 °F 71.6 °F 62% 29.85 in 10.0 mi Calm Calm - N/A   Clear
3:35 PM 86.0 °F 91.8 °F 71.6 °F 62% 29.85 in 10.0 mi South 4.6 mph - N/A   Clear
3:54 PM 87.8 °F 93.8 °F 71.6 °F 58% 29.84 in 10.0 mi Calm Calm - N/A   Clear
4:15 PM 87.8 °F 92.6 °F 69.8 °F 55% 29.84 in 10.0 mi Calm Calm - N/A   Clear
4:34 PM 87.8 °F 92.6 °F 69.8 °F 55% 29.84 in 10.0 mi Calm Calm - N/A   Clear
4:55 PM 87.8 °F 93.8 °F 71.6 °F 58% 29.83 in 10.0 mi Calm Calm - N/A   Scattered Clouds
5:15 PM 87.8 °F 93.8 °F 71.6 °F 58% 29.83 in 10.0 mi Calm Calm - N/A   Scattered Clouds
5:34 PM 87.8 °F 93.8 °F 71.6 °F 58% 29.83 in 10.0 mi Calm Calm - N/A   Clear
5:54 PM 87.8 °F 92.6 °F 69.8 °F 55% 29.83 in 10.0 mi Calm Calm - N/A   Clear
6:15 PM 87.8 °F 93.8 °F 71.6 °F 58% 29.83 in 10.0 mi Calm Calm - N/A   Clear
6:34 PM 87.8 °F 93.8 °F 71.6 °F 58% 29.82 in 10.0 mi Calm Calm - N/A   Clear
6:55 PM 86.0 °F 91.8 °F 71.6 °F 62% 29.82 in 10.0 mi Calm Calm - N/A   Clear
7:15 PM 86.0 °F 93.4 °F 73.4 °F 66% 29.82 in 10.0 mi Calm Calm - N/A   Clear
7:34 PM 84.2 °F 90.9 °F 73.4 °F 70% 29.81 in 10.0 mi Calm Calm - N/A   Clear
7:55 PM 84.2 °F 90.9 °F 73.4 °F 70% 29.81 in 10.0 mi Calm Calm - N/A   Clear
8:15 PM 82.4 °F 88.2 °F 73.4 °F 74% 29.81 in 10.0 mi Calm Calm - N/A   Clear
8:34 PM 80.6 °F 85.4 °F 73.4 °F 79% 29.81 in 10.0 mi Calm Calm - N/A   Clear
8:55 PM 80.6 °F 85.4 °F 73.4 °F 79% 29.82 in 10.0 mi Calm Calm - N/A   Clear
9:14 PM 78.8 °F - 73.4 °F 83% 29.82 in 10.0 mi South 3.5 mph - N/A   Clear
9:35 PM 78.8 °F - 73.4 °F 83% 29.82 in 10.0 mi South 3.5 mph - N/A   Clear
9:55 PM 77.0 °F - 73.4 °F 89% 29.83 in 10.0 mi Calm Calm - N/A   Clear
10:14 PM 75.2 °F - 73.4 °F 94% 29.83 in 10.0 mi South 3.5 mph - N/A   Clear
10:35 PM 75.2 °F - 73.4 °F 94% 29.83 in 10.0 mi Calm Calm - N/A   Clear
10:55 PM 75.2 °F - 73.4 °F 94% 29.82 in 10.0 mi South 3.5 mph - N/A   Clear
11:14 PM 73.4 °F - 73.4 °F 100% 29.82 in 10.0 mi South 3.5 mph - N/A   Clear
11:35 PM 73.4 °F - 73.4 °F 100% 29.82 in 10.0 mi South 4.6 mph - N/A   Clear
11:55 PM 73.4 °F - 71.6 °F 94% 29.82 in 10.0 mi South 3.5 mph - N/A   Clear